OKEAN-O (25860 NORAD) Tracking and Keplerian Element Data

This shows tracking and keplerian element data for the satellite.

Feedback or suggestion? Click here.




ElementValue
Catalog25860
NameOKEAN-O
Epoch Orbit4489
Epoch Day352.52914513
Epoch Year2018
RAAN351.4358
Inclination98.2241
Eccentricity0.0001443
Argument of Perigee113.4669
Mean Anonmoly246.6692
Mean Motion14.76581119
Decay Rate3.5E-07
L11 25860U 99039A 18352.52914513 .00000035 00000-0 12621-4 0 9994
L22 25860 98.2241 351.4358 0001443 113.4669 246.6692 14.76581119 44893

Live tracking and technical data element details for OKEAN-O (NORAD 25860). OKEAN-O can be tracked NOW for your location showing map with azimuth and elevation plus other details from your city location.

Track the satellite on the map from your city or location and see movement details for azimuth, elevation, latitude, longitude, range, height, and movement on the map or in text.







IsCatalogInMostPopularTable: catalog: 25860, numindb: 36
Update: records affected: 1



GetName: 25860 OKEAN-O

Hit Count: updated at: Wed, 19 Dec 2018 15:14:55 GMT